Change the Weather History Date:

Thursday, November 15, 2012

  Actual Average (KSEP) Record (KSEP)
Temperature  
Mean Temperature 50 °F -  
Max Temperature 68 °F 63 °F 86 °F (1950)
Min Temperature 32 °F 39 °F 23 °F (1982)
Degree Days  
Heating Degree Days 15    
Moisture  
Dew Point 32 °F    
Average Humidity 53    
Maximum Humidity 87    
Minimum Humidity 28    
Precipitation  
Precipitation 0.00 in - - ()
Sea Level Pressure  
Sea Level Pressure 30.29 in    
Wind  
Wind Speed 3 mph (ESE)    
Max Wind Speed 10 mph    
Max Gust Speed -    
Visibility 10 miles    
Events      
Averages and records for this station are not official NWS values.
T = Trace of Precipitation, MM = Missing Value Source: NWS Daily Summary

Daily Weather History Graph

Daily Weather History Graph

Search for Another Location

Airport or City:

Trip Planner

Search our weather history database for the weather conditions in past years. The results will help you decide how hot, cold, wet, or windy it might be!

Date:

Astronomy

Nov. 15, 2012 Rise Set
Actual Time 7:01 AM CST 5:30 PM CST
Civil Twilight 6:35 AM CST 5:56 PM CST
Nautical Twilight 6:05 AM CST 6:26 PM CST
Astronomical Twilight 5:36 AM CST 6:55 PM CST
Moon 8:54 AM CST (11/15) 7:26 PM CST (11/15)
Length of Visible Light 11h 21m
Length of Day
10h 29m
Waxing Crescent, 5% of the Moon is Illuminated
Nov 15
Waxing Crescent
Nov 20
First Quarter
Nov 28
Full
Dec 6
Last Quarter
Dec 13
New

Hourly Weather History & Observations

Time (CST) Temp. Windchill Dew Point Humidity Pressure Visibility Wind Dir Wind Speed Gust Speed Precip Events Conditions
12:15 AM 44.6 °F 42.2 °F 30.2 °F 57% 30.29 in 10.0 mi ESE 4.6 mph - N/A   Clear
12:35 AM 44.6 °F 43.1 °F 30.2 °F 57% 30.30 in 10.0 mi SE 3.5 mph - N/A   Clear
12:55 AM 42.8 °F - 30.2 °F 61% 30.30 in 10.0 mi Calm Calm - N/A   Clear
1:15 AM 42.8 °F - 30.2 °F 61% 30.30 in 10.0 mi Calm Calm - N/A   Clear
1:35 AM 37.4 °F - 28.4 °F 70% 30.30 in 10.0 mi Calm Calm - N/A   Clear
1:55 AM 37.4 °F - 28.4 °F 70% 30.30 in 10.0 mi Calm Calm - N/A   Clear
2:15 AM 39.2 °F - 30.2 °F 70% 30.30 in 10.0 mi Calm Calm - N/A   Clear
2:35 AM 37.4 °F - 30.2 °F 75% 30.30 in 10.0 mi Calm Calm - N/A   Clear
2:55 AM 35.6 °F - 28.4 °F 75% 30.31 in 10.0 mi Calm Calm - N/A   Clear
3:15 AM 35.6 °F - 28.4 °F 75% 30.30 in 10.0 mi Calm Calm - N/A   Clear
3:35 AM 35.6 °F - 28.4 °F 75% 30.29 in 10.0 mi Calm Calm - N/A   Clear
3:55 AM 35.6 °F - 30.2 °F 81% 30.29 in 10.0 mi Calm Calm - N/A   Clear
4:15 AM 33.8 °F - 28.4 °F 81% 30.29 in 10.0 mi Calm Calm - N/A   Clear
4:35 AM 35.6 °F - 30.2 °F 81% 30.30 in 10.0 mi Calm Calm - N/A   Clear
4:55 AM 35.6 °F - 30.2 °F 81% 30.29 in 10.0 mi Calm Calm - N/A   Clear
5:15 AM 35.6 °F - 30.2 °F 81% 30.29 in 10.0 mi Calm Calm - N/A   Clear
5:35 AM 32.0 °F - 28.4 °F 87% 30.30 in 10.0 mi Calm Calm - N/A   Clear
5:55 AM 32.0 °F - 28.4 °F 87% 30.30 in 10.0 mi Calm Calm - N/A   Clear
6:15 AM 33.8 °F - 30.2 °F 87% 30.30 in 10.0 mi Calm Calm - N/A   Clear
6:35 AM 35.6 °F - 30.2 °F 81% 30.30 in 10.0 mi Calm Calm - N/A   Clear
6:55 AM 33.8 °F - 30.2 °F 87% 30.30 in 10.0 mi Calm Calm - N/A   Clear
7:15 AM 32.0 °F - 28.4 °F 87% 30.30 in 10.0 mi Calm Calm - N/A   Clear
7:35 AM 33.8 °F - 28.4 °F 81% 30.31 in 10.0 mi Calm Calm - N/A   Clear
7:55 AM 35.6 °F - 30.2 °F 81% 30.32 in 10.0 mi Calm Calm - N/A   Clear
8:15 AM 39.2 °F - 32.0 °F 75% 30.32 in 10.0 mi Calm Calm - N/A   Clear
8:35 AM 41.0 °F - 32.0 °F 70% 30.33 in 10.0 mi Calm Calm - N/A   Clear
8:55 AM 46.4 °F - 32.0 °F 57% 30.33 in 10.0 mi Calm Calm - N/A   Clear
9:15 AM 50.0 °F - 32.0 °F 50% 30.32 in 10.0 mi East 4.6 mph - N/A   Clear
9:35 AM 53.6 °F - 32.0 °F 44% 30.33 in 10.0 mi ESE 6.9 mph - N/A   Clear
9:55 AM 55.4 °F - 32.0 °F 41% 30.32 in 10.0 mi SE 6.9 mph - N/A   Clear
10:15 AM 57.2 °F - 32.0 °F 38% 30.32 in 10.0 mi SE 8.1 mph - N/A   Clear
10:35 AM 57.2 °F - 32.0 °F 38% 30.31 in 10.0 mi ESE 8.1 mph - N/A   Clear
10:55 AM 59.0 °F - 32.0 °F 36% 30.30 in 10.0 mi SE 5.8 mph - N/A   Clear
11:15 AM 60.8 °F - 32.0 °F 34% 30.30 in 10.0 mi East 8.1 mph - N/A   Clear
11:35 AM 62.6 °F - 32.0 °F 32% 30.29 in 10.0 mi SE 5.8 mph - N/A   Clear
11:55 AM 62.6 °F - 33.8 °F 34% 30.28 in 10.0 mi ESE 6.9 mph - N/A   Clear
12:15 PM 64.4 °F - 33.8 °F 32% 30.28 in 10.0 mi East 3.5 mph - N/A   Clear
12:35 PM 64.4 °F - 33.8 °F 32% 30.27 in 10.0 mi East 6.9 mph - N/A   Clear
12:55 PM 66.2 °F - 33.8 °F 30% 30.25 in 10.0 mi East 6.9 mph - N/A   Scattered Clouds
1:15 PM 68.0 °F - 33.8 °F 28% 30.24 in 10.0 mi ESE 8.1 mph - N/A   Mostly Cloudy
1:35 PM 68.0 °F - 35.6 °F 30% 30.23 in 10.0 mi East 6.9 mph - N/A   Overcast
1:55 PM 68.0 °F - 35.6 °F 30% 30.22 in 10.0 mi East 10.4 mph - N/A   Overcast
2:15 PM 68.0 °F - 35.6 °F 30% 30.22 in 10.0 mi ESE 9.2 mph - N/A   Overcast
2:35 PM 68.0 °F - 35.6 °F 30% 30.22 in 10.0 mi East 9.2 mph - N/A   Overcast
2:55 PM 68.0 °F - 35.6 °F 30% 30.22 in 10.0 mi East 6.9 mph - N/A   Overcast
3:15 PM 68.0 °F - 35.6 °F 30% 30.22 in 10.0 mi ESE 9.2 mph - N/A   Overcast
3:35 PM 68.0 °F - 35.6 °F 30% 30.22 in 10.0 mi East 9.2 mph - N/A   Overcast
3:55 PM 68.0 °F - 37.4 °F 33% 30.22 in 10.0 mi ESE 8.1 mph - N/A   Overcast
4:15 PM 66.2 °F - 37.4 °F 35% 30.23 in 10.0 mi SE 8.1 mph - N/A   Overcast
4:55 PM 64.4 °F - 35.6 °F 34% 30.23 in 10.0 mi SE 6.9 mph - N/A   Mostly Cloudy
5:15 PM 64.4 °F - 35.6 °F 34% 30.24 in 10.0 mi SE 4.6 mph - N/A   Mostly Cloudy
5:55 PM 62.6 °F - 33.8 °F 34% 30.25 in 10.0 mi East 8.1 mph - N/A   Overcast
6:15 PM 60.8 °F - 33.8 °F 36% 30.26 in 10.0 mi East 8.1 mph - N/A   Scattered Clouds
6:35 PM 59.0 °F - 33.8 °F 39% 30.27 in 10.0 mi East 6.9 mph - N/A   Clear
6:55 PM 59.0 °F - 32.0 °F 36% 30.28 in 10.0 mi East 6.9 mph - N/A   Clear
7:35 PM 57.2 °F - 32.0 °F 38% 30.29 in 10.0 mi East 8.1 mph - N/A   Scattered Clouds
7:55 PM 55.4 °F - 32.0 °F 41% 30.30 in 10.0 mi ESE 6.9 mph - N/A   Clear
8:15 PM 55.4 °F - 33.8 °F 44% 30.30 in 10.0 mi East 4.6 mph - N/A   Clear
8:35 PM 53.6 °F - 33.8 °F 47% 30.30 in 10.0 mi ESE 5.8 mph - N/A   Clear
8:55 PM 53.6 °F - 32.0 °F 44% 30.31 in 10.0 mi SE 4.6 mph - N/A   Clear
9:15 PM 53.6 °F - 32.0 °F 44% 30.32 in 10.0 mi SE 6.9 mph - N/A   Clear
9:35 PM 51.8 °F - 32.0 °F 47% 30.32 in 10.0 mi ESE 6.9 mph - N/A   Clear
9:55 PM 51.8 °F - 32.0 °F 47% 30.33 in 10.0 mi ESE 4.6 mph - N/A   Clear
10:15 PM 51.8 °F - 32.0 °F 47% 30.33 in 10.0 mi ESE 5.8 mph - N/A   Clear
10:35 PM 51.8 °F - 32.0 °F 47% 30.33 in 10.0 mi SSE 4.6 mph - N/A   Clear
10:55 PM 50.0 °F - 32.0 °F 50% 30.34 in 10.0 mi Calm Calm - N/A   Clear
11:15 PM 50.0 °F - 32.0 °F 50% 30.34 in 10.0 mi Calm Calm - N/A   Clear
11:35 PM 50.0 °F - 32.0 °F 50% 30.35 in 10.0 mi East 3.5 mph - N/A   Clear
11:55 PM 50.0 °F - 32.0 °F 50% 30.35 in 10.0 mi East 3.5 mph - N/A   Clear